SCP
0 0 0 0 0 0 0 0 0 0 0 0 0 0 0 0 0 0 0 0 0 0 0 0 0 0 0 0 0 0 0 0 0 0 0 0 0 0 0 0 0 0 0
0 0 0 0 0 0 0 0 0 0 0 0 0 0 0 0 0 0 0 0 0 0 0 0 0 0 0 0 0 0 0 0 0 0 0 0 0 0 0 0 0 0 0
0 0 0 0 0 0 0 0 0 0 0 0 0 0 0 0 0 0 0 0 0 0 0 0 0 0 0 0 0 0 0 0 0 0 0 0 0 0 0 0 0 0 0
0 0 0 0 0 0 0 0 0 0 0 0 0 0 0 0 0 0 0 0 0 0 0 0 0 0 0 0 0 0 0 0 0 0 0 0 0 0 0 0 0 0 0
0 0 0 0 0 0 0 0 0 0 0 0 0 0 0 0 0 0 0 0 0 0 0 0 0 0 0 0 0 0 0 0 0 0 0 0 0 0 0 0 0 0 0
0 0 0 0 0 0 0 0 0 0 0 0 0 0 0 0 0 0 0 0 0 0 0 0 0 0 0 0 0 0 0 0 0 0 0 0 0 0 0 0 0 0 0
0 0 0 0 0 0 0 0 0 0 0 0 0 0 0 0 0 0 0 0 0 0 0 0 0 0 0 0 0 0 0 0 0 0 0 0 0 0 0 0 0 0 0
0 0 0 0 0 0 0 0 0 0 0 0 0 0 0 0 0 0 0 0 0 0 0 0 0 0 0 0 0 0 0 0 0 0 0 0 0 0 0 0 0 0 0
0 0 0 0 0 0 0 0 0 0 0 0 0 0 0 0 0 0 0 0 0 0 0 0 0 0 0 0 0 0 0 0 0 0 0 0 0 0 0 0 0 0 0
0 0 0 0 0 0 0 0 0 0 0 0 0 0 0 0 0 0 0 0 0 0 0 0 0 0 0 0 0 0 0 0 0 0 0 0 0 0 0 0 0 0 0
0 0 0 0 0 0 0 0 0 0 0 0 0 0 0 0 0 0 0 0 0 0 0 0 0 0 0 0 0 0 0 0 0 0 0 0 0 0 0 0 0 0 0
0 0 0 0 0 0 0 0 0 0 0 0 0 0 0 0 0 0 0 0 0 0 0 0 0 0 0 0 0 0 0 0 0 0 0 0 0 0 0 0 0 0 0
0 0 0 0 0 0 0 0 0 0 0 0 0 0 0 0 0 0 0 0 0 0 0 0 0 0 0 0 0 0 0 0 0 0 0 0 0 0 0 0 0 0 0
0 0 0 0 0 0 0 0 0 0 0 0 0 0 0 0 0 0 0 0 0 0 0 0 0 0 0 0 0 0 0 0 0 0 0 0 0 0 0 0 0 0 0
0 0 0 0 0 0 0 0 0 0 0 0 0 0 0 0 0 0 0 0 0 0 0 0 0 0 0 0 0 0 0 0 0 0 0 0 0 0 0 0 0 0 0
0 0 0 0 0 0 0 0 0 0 0 0 0 0 0 0 0 0 0 0 0 0 0 0 0 0 0 0 0 0 0 0 0 0 0 0 0 0 0 0 0 0 0
0 0 0 0 0 0 0 0 0 0 0 0 0 0 0 0 0 0 0 0 0 0 0 0 0 0 0 0 0 0 0 0 0 0 0 0 0 0 0 0 0 0 0
0 0 0 0 0 0 0 0 0 0 0 0 0 0 0 0 0 0 0 0 0 0 0 0 0 0 0 0 0 0 0 0 0 0 0 0 0 0 0 0 0 0 0
0 0 0 0 0 0 0 0 0 0 0 0 0 0 0 0 0 0 0 0 0 0 0 0 0 0 0 0 0 0 0 0 0 0 0 0 0 0 0 0 0 0 0
0 0 0 0 0 0 0 0 0 0 0 0 0 0 0 0 0 0 0 0 0 0 0 0 0 0 0 0 0 0 0 0 0 0 0 0 0 0 0 0 0 0 0
0 0 0 0 0 0 0 0 0 0 0 0 0 0 0 0 0 0 0 0 0 0 0 0 0 0 0 0 0 0 0 0 0 0 0 0 0 0 0 0 0 0 0
0 0 0 0 0 0 0 0 0 0 0 0 0 0 0 0 0 0 0 0 0 0 0 0 0 0 0 0 0 0 0 0 0 0 0 0 0 0 0 0 0 0 0
0 0 0 0 0 0 0 0 0 0 0 0 0 0 0 0 0 0 0 0 0 0 0 0 0 0 0 0 0 0 0 0 0 0 0 0 0 0 0 0 0 0 0
0 0 0 0 0 0 0 0 0 0 0 0 0 0 0 0 0 0 0 0 0 0 0 0 0 0 0 0 0 0 0 0 0 0 0 0 0 0 0 0 0 0 0
0 0 0 0 0 0 0 0 0 0 0 0 0 0 0 0 0 0 0 0 0 0 0 0 0 0 0 0 0 0 0 0 0 0 0 0 0 0 0 0 0 0 0
0 0 0 0 0 0 0 0 0 0 0 0 0 0 0 0 0 0 0 0 0 0 0 0 0 0 0 0 0 0 0 0 0 0 0 0 0 0 0 0 0 0 0
Wind_Speed_500mb
35 24 24 32 30 23 19 20 19 23 22 20 18 23 28 22 18 27 22 14 9 11 14 14 16 16 14 20 21 23 25 23 24 21 19 20 21 27 30 28 25 26 27
36 30 25 22 29 28 25 23 19 19 21 20 21 25 26 26 19 22 24 18 14 10 12 12 10 13 11 16 18 20 23 24 23 20 17 18 16 20 25 25 23 20 24
43 40 29 29 29 31 29 25 23 22 20 20 22 23 24 22 20 20 25 23 18 15 12 10 7 11 8 7 13 17 22 20 20 17 12 9 14 17 18 18 19 20 22
42 41 40 37 36 33 31 29 26 25 22 21 24 25 25 24 23 24 25 25 21 20 17 12 11 9 6 5 9 15 19 19 17 13 10 9 6 10 14 21 17 19 18
44 45 43 42 39 33 31 28 28 25 23 25 27 26 27 25 24 27 28 27 24 22 19 18 15 13 10 7 6 10 15 17 15 14 11 9 9 8 10 13 16 13 17
54 49 46 42 41 38 35 33 30 29 25 27 27 26 29 28 29 29 32 32 30 26 23 22 19 17 14 11 9 8 9 13 14 13 12 12 8 12 12 10 9 12 14
63 53 50 50 47 44 40 34 34 33 32 32 31 29 30 31 32 34 35 37 36 33 29 27 24 22 19 15 11 9 8 10 12 11 9 4 8 8 11 8 10 4 6
64 62 59 55 54 47 44 41 42 41 39 36 32 26 20 33 40 40 39 41 40 40 35 32 30 26 24 19 15 11 9 8 9 9 8 8 4 4 6 6 6 7 9
63 67 61 60 59 52 52 48 49 46 46 41 40 27 18 20 23 38 46 45 46 45 42 39 35 32 29 24 20 15 11 9 8 7 6 7 6 5 2 2 4 4 6
70 71 68 67 67 63 60 56 52 50 49 49 46 49 42 27 21 15 29 43 50 50 49 47 42 38 35 30 25 19 15 10 9 5 5 4 5 7 7 8 8 10 8
79 78 74 73 77 73 68 65 62 60 56 55 56 51 55 49 37 32 27 30 39 52 54 54 49 45 41 37 31 25 21 13 10 7 5 2 3 6 8 7 9 11 14
82 83 82 81 81 80 77 77 73 66 63 62 61 62 62 65 62 55 45 44 38 39 43 55 55 52 45 42 37 30 27 20 15 13 8 5 2 4 7 10 10 10 14
84 86 91 89 87 86 84 84 83 79 74 73 73 70 67 69 67 64 60 59 52 49 43 42 55 55 52 48 43 37 34 27 21 19 15 10 7 5 6 8 11 11 13
86 84 89 94 92 90 89 89 91 89 86 83 83 80 75 71 72 74 72 65 62 58 52 44 36 47 58 54 49 43 41 36 29 26 21 16 12 11 10 9 11 12 13
85 82 83 89 93 95 96 94 95 95 96 92 91 90 87 81 79 76 80 78 74 60 69 61 55 62 57 60 57 51 48 42 37 32 26 22 19 16 14 14 15 13 14
87 88 87 85 83 89 96 99 99 97 99 97 97 99 98 92 90 90 86 88 90 86 76 72 78 73 65 58 63 55 52 50 44 38 31 27 24 22 21 20 19 18 17
92 90 90 88 85 85 88 95 100 101 103 97 99 103 105 101 100 98 95 95 97 98 93 85 77 71 69 60 58 55 54 57 49 43 37 33 29 26 26 24 25 22 22
90 88 87 88 87 85 85 91 96 102 107 104 103 104 108 107 108 106 102 104 103 103 104 103 97 82 77 53 53 48 55 61 53 48 42 38 34 31 30 28 30 28 25
83 85 85 90 89 85 85 89 92 95 102 104 105 110 112 112 113 114 110 107 105 107 112 121 106 90 84 65 57 54 59 65 57 54 46 41 38 36 34 32 34 31 29
70 76 81 83 87 84 86 80 81 86 94 99 106 112 113 114 115 112 113 112 114 118 120 119 106 94 84 70 62 57 70 70 58 56 46 42 41 39 36 35 35 32 30
64 63 62 73 80 84 85 83 84 81 82 89 97 104 108 112 110 111 112 115 122 126 108 98 94 94 86 78 79 64 71 64 56 52 46 40 41 39 37 37 35 31 31
59 59 62 71 75 76 80 76 76 83 85 89 92 95 96 100 104 108 112 112 128 119 110 102 114 110 98 86 79 69 70 69 61 52 42 39 38 40 39 34 33 33 34
33 42 49 55 58 59 63 68 71 75 81 90 87 83 83 89 90 92 99 97 101 106 95 87 119 118 95 87 82 72 68 61 59 43 35 43 41 35 38 37 35 31 31
21 19 18 21 23 25 30 34 40 47 55 67 74 81 89 81 78 76 77 73 81 79 83 83 108 109 77 82 67 64 50 58 54 46 40 48 46 41 35 35 31 28 27
41 35 35 33 34 31 36 40 44 46 49 46 42 47 54 55 56 52 52 51 54 65 69 67 89 75 68 65 59 61 60 60 56 45 31 43 43 36 32 30 27 22 20
42 47 51 50 50 50 52 51 54 52 53 53 49 48 40 51 41 38 40 45 50 61 64 72 75 76 71 66 68 57 57 66 59 46 28 44 41 33 22 25 23 21 26
Wind_Direction_500mb
185 188 195 183 182 165 165 176 197 195 191 195 191 187 182 190 184 189 195 212 208 123 106 102 88 87 77 71 54 50 50 44 62 65 62 62 63 54 51 59 50 52 47
175 194 192 194 190 173 172 195 201 195 203 207 204 194 198 206 208 191 198 202 206 199 146 114 115 101 89 79 54 44 38 43 58 68 65 62 48 54 54 59 52 44 40
188 190 194 196 197 182 180 189 198 208 214 215 211 204 204 207 215 204 198 203 205 217 221 211 193 140 116 78 36 32 33 42 51 69 92 71 52 54 50 59 52 40 36
196 188 191 196 199 193 190 200 202 210 215 214 208 210 211 215 219 218 213 219 219 224 230 246 254 236 229 304 10 18 26 27 34 49 87 87 90 68 62 60 52 42 27
198 195 192 200 208 205 206 206 200 211 213 210 212 215 217 220 225 223 222 230 232 234 234 234 238 249 256 282 332 355 10 12 20 30 48 123 84 77 70 79 71 45 34
194 202 204 209 213 211 212 212 207 206 213 218 219 218 219 223 229 229 228 231 234 239 235 238 237 243 248 259 284 312 348 353 10 27 42 82 80 77 85 97 122 56 49
204 204 209 215 216 217 217 213 210 208 211 215 218 216 221 229 234 234 232 234 234 236 238 239 240 242 247 250 257 281 313 343 352 9 32 54 106 109 96 83 66 218 292
214 212 211 216 216 218 219 217 217 215 221 224 219 219 226 236 239 238 236 237 236 238 239 240 242 243 245 248 249 262 279 317 339 354 12 14 334 195 180 98 62 54 40
221 223 212 215 219 224 224 226 225 227 229 228 223 215 209 222 228 236 238 239 241 239 239 241 242 244 245 245 246 251 261 291 319 346 359 12 341 304 269 134 84 50 38
224 225 224 218 227 229 229 231 233 234 233 235 228 227 226 232 216 231 235 239 242 243 240 241 242 242 243 243 245 245 249 267 290 319 341 13 338 313 310 317 334 329 316
226 230 230 229 230 233 234 236 236 235 237 238 238 238 232 232 230 234 245 244 241 244 242 242 241 241 240 241 242 240 246 250 264 274 292 335 343 318 307 315 331 339 318
230 233 234 234 237 237 237 239 240 241 242 245 243 243 242 238 237 233 236 252 254 254 250 245 244 243 239 240 239 237 241 242 246 249 257 269 279 301 312 318 326 345 323
236 236 236 236 237 241 240 241 244 245 244 244 248 248 247 247 250 250 247 247 250 252 253 246 245 245 243 239 237 234 238 239 240 241 248 260 274 271 287 314 318 329 324
250 249 243 243 243 244 243 243 246 249 249 247 249 252 251 250 250 252 250 239 238 242 246 248 240 253 249 239 236 232 237 237 240 240 244 256 265 272 282 287 295 315 323
253 253 252 249 248 247 247 245 245 250 251 250 251 255 255 256 254 254 253 248 246 237 236 233 231 235 246 243 233 230 234 234 238 240 243 250 257 265 275 278 282 295 306
252 252 253 254 252 251 250 248 248 251 253 254 253 253 256 257 256 254 251 253 249 246 244 236 239 233 226 241 232 226 232 233 236 239 242 249 256 263 269 273 279 288 292
247 248 255 256 255 254 254 252 251 252 253 256 256 255 255 257 259 256 253 252 248 245 243 242 235 231 222 234 231 223 234 236 236 240 244 249 254 262 268 271 276 281 285
247 250 251 253 260 257 257 255 254 253 253 255 256 257 258 258 259 259 257 256 253 249 246 241 233 220 213 222 223 222 241 238 235 240 242 249 254 259 265 267 274 278 284
248 250 250 250 253 262 262 260 259 260 259 260 260 259 260 260 260 259 259 258 258 254 248 242 227 217 207 214 216 217 235 235 232 238 239 248 255 259 262 265 270 277 281
258 253 250 254 255 259 262 266 267 267 267 265 263 262 262 262 261 263 265 264 263 255 248 240 227 220 207 210 217 220 231 233 227 237 240 246 253 259 261 262 268 272 271
254 260 262 260 260 259 263 265 266 268 269 269 267 266 265 265 267 267 267 267 262 257 241 227 221 211 203 208 216 212 232 230 228 235 238 247 255 257 258 259 263 263 267
252 252 253 255 259 263 265 267 271 272 273 271 269 268 267 268 267 268 268 265 263 260 251 242 219 208 205 207 217 213 231 224 223 228 235 246 259 259 258 253 259 265 269
260 256 254 255 253 255 258 261 262 263 268 272 272 269 268 267 270 268 264 262 260 264 260 257 229 207 206 210 215 215 227 227 226 219 225 244 256 254 257 260 261 262 262
327 311 305 291 284 284 282 278 277 280 279 277 272 273 274 272 272 268 265 259 256 254 251 247 234 212 217 213 209 214 223 221 216 217 232 265 257 252 255 256 258 255 256
328 317 313 308 306 304 300 297 295 289 294 294 293 298 276 279 280 278 273 259 253 249 242 238 220 208 202 204 205 211 213 209 208 218 241 271 249 248 251 251 248 244 226
319 315 310 312 308 301 300 299 299 299 296 297 304 287 280 290 277 276 271 262 249 237 219 201 193 197 193 195 205 210 215 212 212 222 231 261 240 241 246 243 234 220 199
Wind_Speed_850mb
35 24 24 32 30 23 19 20 19 23 22 20 18 23 28 22 18 27 22 14 9 11 14 14 16 16 14 20 21 23 25 23 24 21 19 20 21 27 30 28 25 26 27
36 30 25 22 29 28 25 23 19 19 21 20 21 25 26 26 19 22 24 18 14 10 12 12 10 13 11 16 18 20 23 24 23 20 17 18 16 20 25 25 23 20 24
43 40 29 29 29 31 29 25 23 22 20 20 22 23 24 22 20 20 25 23 18 15 12 10 7 11 8 7 13 17 22 20 20 17 12 9 14 17 18 18 19 20 22
42 41 40 37 36 33 31 29 26 25 22 21 24 25 25 24 23 24 25 25 21 20 17 12 11 9 6 5 9 15 19 19 17 13 10 9 6 10 14 21 17 19 18
44 45 43 42 39 33 31 28 28 25 23 25 27 26 27 25 24 27 28 27 24 22 19 18 15 13 10 7 6 10 15 17 15 14 11 9 9 8 10 13 16 13 17
54 49 46 42 41 38 35 33 30 29 25 27 27 26 29 28 29 29 32 32 30 26 23 22 19 17 14 11 9 8 9 13 14 13 12 12 8 12 12 10 9 12 14
63 53 50 50 47 44 40 34 34 33 32 32 31 29 30 31 32 34 35 37 36 33 29 27 24 22 19 15 11 9 8 10 12 11 9 4 8 8 11 8 10 4 6
64 62 59 55 54 47 44 41 42 41 39 36 32 26 20 33 40 40 39 41 40 40 35 32 30 26 24 19 15 11 9 8 9 9 8 8 4 4 6 6 6 7 9
63 67 61 60 59 52 52 48 49 46 46 41 40 27 18 20 23 38 46 45 46 45 42 39 35 32 29 24 20 15 11 9 8 7 6 7 6 5 2 2 4 4 6
70 71 68 67 67 63 60 56 52 50 49 49 46 49 42 27 21 15 29 43 50 50 49 47 42 38 35 30 25 19 15 10 9 5 5 4 5 7 7 8 8 10 8
79 78 74 73 77 73 68 65 62 60 56 55 56 51 55 49 37 32 27 30 39 52 54 54 49 45 41 37 31 25 21 13 10 7 5 2 3 6 8 7 9 11 14
82 83 82 81 81 80 77 77 73 66 63 62 61 62 62 65 62 55 45 44 38 39 43 55 55 52 45 42 37 30 27 20 15 13 8 5 2 4 7 10 10 10 14
84 86 91 89 87 86 84 84 83 79 74 73 73 70 67 69 67 64 60 59 52 49 43 42 55 55 52 48 43 37 34 27 21 19 15 10 7 5 6 8 11 11 13
86 84 89 94 92 90 89 89 91 89 86 83 83 80 75 71 72 74 72 65 62 58 52 44 36 47 58 54 49 43 41 36 29 26 21 16 12 11 10 9 11 12 13
85 82 83 89 93 95 96 94 95 95 96 92 91 90 87 81 79 76 80 78 74 60 69 61 55 62 57 60 57 51 48 42 37 32 26 22 19 16 14 14 15 13 14
87 88 87 85 83 89 96 99 99 97 99 97 97 99 98 92 90 90 86 88 90 86 76 72 78 73 65 58 63 55 52 50 44 38 31 27 24 22 21 20 19 18 17
92 90 90 88 85 85 88 95 100 101 103 97 99 103 105 101 100 98 95 95 97 98 93 85 77 71 69 60 58 55 54 57 49 43 37 33 29 26 26 24 25 22 22
90 88 87 88 87 85 85 91 96 102 107 104 103 104 108 107 108 106 102 104 103 103 104 103 97 82 77 53 53 48 55 61 53 48 42 38 34 31 30 28 30 28 25
83 85 85 90 89 85 85 89 92 95 102 104 105 110 112 112 113 114 110 107 105 107 112 121 106 90 84 65 57 54 59 65 57 54 46 41 38 36 34 32 34 31 29
70 76 81 83 87 84 86 80 81 86 94 99 106 112 113 114 115 112 113 112 114 118 120 119 106 94 84 70 62 57 70 70 58 56 46 42 41 39 36 35 35 32 30
64 63 62 73 80 84 85 83 84 81 82 89 97 104 108 112 110 111 112 115 122 126 108 98 94 94 86 78 79 64 71 64 56 52 46 40 41 39 37 37 35 31 31
59 59 62 71 75 76 80 76 76 83 85 89 92 95 96 100 104 108 112 112 128 119 110 102 114 110 98 86 79 69 70 69 61 52 42 39 38 40 39 34 33 33 34
33 42 49 55 58 59 63 68 71 75 81 90 87 83 83 89 90 92 99 97 101 106 95 87 119 118 95 87 82 72 68 61 59 43 35 43 41 35 38 37 35 31 31
21 19 18 21 23 25 30 34 40 47 55 67 74 81 89 81 78 76 77 73 81 79 83 83 108 109 77 82 67 64 50 58 54 46 40 48 46 41 35 35 31 28 27
41 35 35 33 34 31 36 40 44 46 49 46 42 47 54 55 56 52 52 51 54 65 69 67 89 75 68 65 59 61 60 60 56 45 31 43 43 36 32 30 27 22 20
42 47 51 50 50 50 52 51 54 52 53 53 49 48 40 51 41 38 40 45 50 61 64 72 75 76 71 66 68 57 57 66 59 46 28 44 41 33 22 25 23 21 26
Wind_Direction_850mb
185 188 195 183 182 165 165 176 197 195 191 195 191 187 182 190 184 189 195 212 208 123 106 102 88 87 77 71 54 50 50 44 62 65 62 62 63 54 51 59 50 52 47
175 194 192 194 190 173 172 195 201 195 203 207 204 194 198 206 208 191 198 202 206 199 146 114 115 101 89 79 54 44 38 43 58 68 65 62 48 54 54 59 52 44 40
188 190 194 196 197 182 180 189 198 208 214 215 211 204 204 207 215 204 198 203 205 217 221 211 193 140 116 78 36 32 33 42 51 69 92 71 52 54 50 59 52 40 36
196 188 191 196 199 193 190 200 202 210 215 214 208 210 211 215 219 218 213 219 219 224 230 246 254 236 229 304 10 18 26 27 34 49 87 87 90 68 62 60 52 42 27
198 195 192 200 208 205 206 206 200 211 213 210 212 215 217 220 225 223 222 230 232 234 234 234 238 249 256 282 332 355 10 12 20 30 48 123 84 77 70 79 71 45 34
194 202 204 209 213 211 212 212 207 206 213 218 219 218 219 223 229 229 228 231 234 239 235 238 237 243 248 259 284 312 348 353 10 27 42 82 80 77 85 97 122 56 49
204 204 209 215 216 217 217 213 210 208 211 215 218 216 221 229 234 234 232 234 234 236 238 239 240 242 247 250 257 281 313 343 352 9 32 54 106 109 96 83 66 218 292
214 212 211 216 216 218 219 217 217 215 221 224 219 219 226 236 239 238 236 237 236 238 239 240 242 243 245 248 249 262 279 317 339 354 12 14 334 195 180 98 62 54 40
221 223 212 215 219 224 224 226 225 227 229 228 223 215 209 222 228 236 238 239 241 239 239 241 242 244 245 245 246 251 261 291 319 346 359 12 341 304 269 134 84 50 38
224 225 224 218 227 229 229 231 233 234 233 235 228 227 226 232 216 231 235 239 242 243 240 241 242 242 243 243 245 245 249 267 290 319 341 13 338 313 310 317 334 329 316
226 230 230 229 230 233 234 236 236 235 237 238 238 238 232 232 230 234 245 244 241 244 242 242 241 241 240 241 242 240 246 250 264 274 292 335 343 318 307 315 331 339 318
230 233 234 234 237 237 237 239 240 241 242 245 243 243 242 238 237 233 236 252 254 254 250 245 244 243 239 240 239 237 241 242 246 249 257 269 279 301 312 318 326 345 323
236 236 236 236 237 241 240 241 244 245 244 244 248 248 247 247 250 250 247 247 250 252 253 246 245 245 243 239 237 234 238 239 240 241 248 260 274 271 287 314 318 329 324
250 249 243 243 243 244 243 243 246 249 249 247 249 252 251 250 250 252 250 239 238 242 246 248 240 253 249 239 236 232 237 237 240 240 244 256 265 272 282 287 295 315 323
253 253 252 249 248 247 247 245 245 250 251 250 251 255 255 256 254 254 253 248 246 237 236 233 231 235 246 243 233 230 234 234 238 240 243 250 257 265 275 278 282 295 306
252 252 253 254 252 251 250 248 248 251 253 254 253 253 256 257 256 254 251 253 249 246 244 236 239 233 226 241 232 226 232 233 236 239 242 249 256 263 269 273 279 288 292
247 248 255 256 255 254 254 252 251 252 253 256 256 255 255 257 259 256 253 252 248 245 243 242 235 231 222 234 231 223 234 236 236 240 244 249 254 262 268 271 276 281 285
247 250 251 253 260 257 257 255 254 253 253 255 256 257 258 258 259 259 257 256 253 249 246 241 233 220 213 222 223 222 241 238 235 240 242 249 254 259 265 267 274 278 284
248 250 250 250 253 262 262 260 259 260 259 260 260 259 260 260 260 259 259 258 258 254 248 242 227 217 207 214 216 217 235 235 232 238 239 248 255 259 262 265 270 277 281
258 253 250 254 255 259 262 266 267 267 267 265 263 262 262 262 261 263 265 264 263 255 248 240 227 220 207 210 217 220 231 233 227 237 240 246 253 259 261 262 268 272 271
254 260 262 260 260 259 263 265 266 268 269 269 267 266 265 265 267 267 267 267 262 257 241 227 221 211 203 208 216 212 232 230 228 235 238 247 255 257 258 259 263 263 267
252 252 253 255 259 263 265 267 271 272 273 271 269 268 267 268 267 268 268 265 263 260 251 242 219 208 205 207 217 213 231 224 223 228 235 246 259 259 258 253 259 265 269
260 256 254 255 253 255 258 261 262 263 268 272 272 269 268 267 270 268 264 262 260 264 260 257 229 207 206 210 215 215 227 227 226 219 225 244 256 254 257 260 261 262 262
327 311 305 291 284 284 282 278 277 280 279 277 272 273 274 272 272 268 265 259 256 254 251 247 234 212 217 213 209 214 223 221 216 217 232 265 257 252 255 256 258 255 256
328 317 313 308 306 304 300 297 295 289 294 294 293 298 276 279 280 278 273 259 253 249 242 238 220 208 202 204 205 211 213 209 208 218 241 271 249 248 251 251 248 244 226
319 315 310 312 308 301 300 299 299 299 296 297 304 287 280 290 277 276 271 262 249 237 219 201 193 197 193 195 205 210 215 212 212 222 231 261 240 241 246 243 234 220 199